Location: Newark
(21.0333°N, 105.8500°E)
Time: 05:28:10
(UTC+00:00)

Envisat - Pass Details

Date: 11 December 2019
Orbit: 764 x 766 km, 98.1° (Epoch: 20 January)

Event Time Altitude Azimuth Distance (km) Brightness Sun altitude
Rises 22:31:59 0° 36° (NE) 3,223 6.5 -12.0°
Reaches altitude 10° 22:35:04 10° 56° (NE) 2,294 6.0 -11.3°
Maximum altitude 22:38:21 17° 97° (E) 1,832 6.2 -10.6°
Drops below altitude 10° 22:41:38 10° 138° (SE) 2,289 6.6 -9.9°
Sets 22:44:40 0° 157° (SSE) 3,212 6.9 -9.2°
